Oil Trough, Arkansas
Current Conditions -  °F | °C
As of 3:35 PM on Thursday 18 Dec 2014 (Local Time) from KBVX Reporting Station
Overcast Overcast  
Wind Chill: 39°   Ceiling: 800
Heat Index: 39°   Visibility: 5mi
Dew Point: 36°   Wind: 0mph
Humidity: 87%   Direction: NA
Pressure: 30.19"   Gusts: NA
Location:  35.63°N, 91.46°W
Report Text: KBVX 182135Z AUTO 00000KT 5SM OVC008 04/02 A3019 RMK AO1
Loading
Personal Weather Stations






























Interactive Weather Map New forecast layout! Learn more

10-Day Weather Forecast

Advertisements
Track Severe Weather on mobile